SVR340 UMMS-UUBW

Flight info

Callsign SVR340
Flight time 1h 15m
Altitude 31000
Route SORFO2F SORFO L979 PASUD T52 BILRU BILRU2W
Aircraft A321/M-SDFGJ1IYRW/LB1

Departure

Time 2026-04-30 21:28
Airport Minsk National Airport (UMMS)

Arrival

Time 2026-04-30 22:43
Airport Zhukovsky International Airport (UUBW)
Time Latitude Longitude Altitude Speed Heading
2026-04-30 21:05 53.88773 28.03626 670 ft 0 kts 318°
2026-04-30 21:11 53.88772 28.03626 669 ft 0 kts 318°
2026-04-30 21:11 53.88773 28.03626 669 ft 0 kts 318°
2026-04-30 21:20 53.88776 28.03621 669 ft 4 kts 318°
2026-04-30 21:21 53.88835 28.03607 669 ft 12 kts 36°
2026-04-30 21:21 53.88897 28.03698 669 ft 12 kts 39°
2026-04-30 21:21 53.88852 28.03992 669 ft 15 kts 136°
2026-04-30 21:22 53.88822 28.04125 669 ft 12 kts 64°
2026-04-30 21:22 53.89125 28.04703 669 ft 24 kts 48°
2026-04-30 21:23 53.89198 28.04867 669 ft 12 kts 83°
2026-04-30 21:23 53.89145 28.04977 669 ft 18 kts 138°
2026-04-30 21:23 53.88888 28.05358 669 ft 25 kts 138°
2026-04-30 21:24 53.88761 28.05548 669 ft 24 kts 140°
2026-04-30 21:24 53.88639 28.05728 669 ft 23 kts 139°
2026-04-30 21:24 53.88521 28.05904 669 ft 24 kts 138°
2026-04-30 21:24 53.88365 28.06134 669 ft 31 kts 139°
2026-04-30 21:25 53.88097 28.06534 669 ft 30 kts 138°
2026-04-30 21:25 53.87957 28.06742 669 ft 13 kts 129°
2026-04-30 21:25 53.87962 28.06878 669 ft 12 kts 54°
2026-04-30 21:26 53.88074 28.06968 666 ft 0 kts 317°
2026-04-30 21:27 53.88076 28.06966 666 ft 2 kts 317°
2026-04-30 21:27 53.88243 28.06718 666 ft 79 kts 319°
2026-04-30 21:27 53.88876 28.05779 665 ft 159 kts 319°
2026-04-30 21:28 53.90645 28.03128 2508 ft 170 kts 319°
2026-04-30 21:28 53.91523 28.01804 3151 ft 169 kts 319°
2026-04-30 21:28 53.93350 27.99182 4066 ft 184 kts 319°
2026-04-30 21:29 53.94355 27.97674 4270 ft 206 kts 318°
2026-04-30 21:29 53.98840 27.96931 5993 ft 239 kts 15°
2026-04-30 21:30 54.02003 27.98639 7735 ft 238 kts 15°
2026-04-30 21:31 54.06060 28.03167 8274 ft 247 kts 64°
2026-04-30 21:31 54.06370 28.09072 8275 ft 255 kts 86°
2026-04-30 21:32 54.06336 28.15079 8272 ft 255 kts 86°
2026-04-30 21:32 54.06320 28.18142 8271 ft 255 kts 86°
2026-04-30 21:32 54.06304 28.21163 8271 ft 255 kts 86°
2026-04-30 21:32 54.06424 28.24194 8297 ft 265 kts 80°
2026-04-30 21:33 54.06625 28.27395 8863 ft 275 kts 80°
2026-04-30 21:33 54.07016 28.33954 10418 ft 281 kts 79°
2026-04-30 21:33 54.07254 28.37254 11126 ft 280 kts 73°
2026-04-30 21:34 54.07862 28.40390 11740 ft 283 kts 60°
2026-04-30 21:34 54.10036 28.46553 12022 ft 324 kts 54°
2026-04-30 21:34 54.11249 28.49878 12390 ft 336 kts 55°
2026-04-30 21:35 54.12491 28.53300 13038 ft 339 kts 55°
2026-04-30 21:35 54.13731 28.56735 13731 ft 341 kts 55°
2026-04-30 21:35 54.14979 28.60195 14376 ft 343 kts 55°
2026-04-30 21:35 54.16233 28.63679 14962 ft 345 kts 54°
2026-04-30 21:36 54.17477 28.67149 15561 ft 347 kts 55°
2026-04-30 21:36 54.18741 28.70677 16152 ft 349 kts 54°
2026-04-30 21:37 54.22549 28.81373 17855 ft 353 kts 54°
2026-04-30 21:37 54.23829 28.84970 18377 ft 355 kts 54°
2026-04-30 21:37 54.25113 28.88591 18843 ft 357 kts 54°
2026-04-30 21:37 54.26388 28.92194 19294 ft 358 kts 54°
2026-04-30 21:38 54.27678 28.95836 19741 ft 359 kts 54°
2026-04-30 21:38 54.28947 28.99529 20176 ft 363 kts 58°
2026-04-30 21:38 54.29880 29.03594 20610 ft 371 kts 69°
2026-04-30 21:38 54.30405 29.07975 21060 ft 377 kts 73°
2026-04-30 21:39 54.30879 29.12397 21525 ft 379 kts 73°
2026-04-30 21:39 54.31361 29.16849 21973 ft 380 kts 73°
2026-04-30 21:39 54.31845 29.21314 22417 ft 383 kts 72°
2026-04-30 21:39 54.32331 29.25808 22869 ft 385 kts 73°
2026-04-30 21:40 54.32815 29.30338 23316 ft 387 kts 73°
2026-04-30 21:40 54.33299 29.34900 23760 ft 390 kts 73°
2026-04-30 21:40 54.33784 29.39478 24111 ft 392 kts 73°
2026-04-30 21:40 54.34272 29.44087 24460 ft 394 kts 73°
2026-04-30 21:41 54.34759 29.48726 24810 ft 396 kts 73°
2026-04-30 21:41 54.35240 29.53388 25157 ft 398 kts 73°
2026-04-30 21:41 54.35713 29.58005 25497 ft 400 kts 73°
2026-04-30 21:41 54.36203 29.62775 25840 ft 402 kts 73°
2026-04-30 21:42 54.36688 29.67449 26175 ft 403 kts 73°
2026-04-30 21:42 54.37183 29.72196 26518 ft 405 kts 73°
2026-04-30 21:42 54.37682 29.76970 26859 ft 407 kts 73°
2026-04-30 21:42 54.38178 29.81770 27188 ft 409 kts 73°
2026-04-30 21:43 54.38671 29.86590 27503 ft 412 kts 73°
2026-04-30 21:43 54.39200 29.91420 27809 ft 410 kts 69°
2026-04-30 21:43 54.40076 29.96060 28097 ft 405 kts 61°
2026-04-30 21:43 54.41205 30.00496 28376 ft 406 kts 60°
2026-04-30 21:44 54.42339 30.04947 28641 ft 407 kts 60°
2026-04-30 21:44 54.43475 30.09429 28894 ft 409 kts 60°
2026-04-30 21:44 54.44610 30.13928 29123 ft 411 kts 61°
2026-04-30 21:44 54.45742 30.18443 29380 ft 411 kts 61°
2026-04-30 21:45 54.46870 30.22953 29715 ft 410 kts 61°
2026-04-30 21:45 54.47996 30.27471 30039 ft 410 kts 61°
2026-04-30 21:45 54.49114 30.31967 30346 ft 409 kts 61°
2026-04-30 21:45 54.50230 30.36463 30595 ft 408 kts 61°
2026-04-30 21:46 54.51336 30.40909 30825 ft 409 kts 61°
2026-04-30 21:46 54.52466 30.45454 31059 ft 409 kts 61°
2026-04-30 21:46 54.53588 30.49971 31214 ft 409 kts 61°
2026-04-30 21:46 54.54690 30.54422 31246 ft 401 kts 61°
2026-04-30 21:47 54.56861 30.63220 31247 ft 397 kts 61°
2026-04-30 21:47 54.59017 30.71984 31241 ft 397 kts 61°
2026-04-30 21:48 54.61154 30.80718 31243 ft 398 kts 61°
2026-04-30 21:48 54.63310 30.89574 31250 ft 398 kts 62°
2026-04-30 21:49 54.65447 30.98401 31246 ft 398 kts 62°
2026-04-30 21:49 54.67427 31.07359 31249 ft 402 kts 66°
2026-04-30 21:50 54.69077 31.16536 31255 ft 402 kts 66°
2026-04-30 21:50 54.70734 31.25794 31250 ft 403 kts 66°
2026-04-30 21:51 54.72389 31.35062 31239 ft 403 kts 67°
2026-04-30 21:51 54.74032 31.44335 31239 ft 403 kts 67°
2026-04-30 21:52 54.75669 31.53633 31245 ft 404 kts 67°
2026-04-30 21:52 54.77310 31.62953 31241 ft 404 kts 67°
2026-04-30 21:53 54.78935 31.72267 31244 ft 405 kts 67°
2026-04-30 21:53 54.80556 31.81614 31244 ft 405 kts 67°
2026-04-30 21:54 54.82181 31.90978 31247 ft 405 kts 68°
2026-04-30 21:54 54.83792 32.00347 31245 ft 406 kts 68°
2026-04-30 21:55 54.85395 32.09759 31240 ft 406 kts 68°
2026-04-30 21:55 54.86997 32.19174 31240 ft 406 kts 68°
2026-04-30 21:56 54.88593 32.28589 31242 ft 407 kts 68°
2026-04-30 21:56 54.90179 32.38039 31238 ft 407 kts 68°
2026-04-30 21:57 54.91760 32.47502 31240 ft 408 kts 68°
2026-04-30 21:57 54.93339 32.56964 31244 ft 408 kts 68°
2026-04-30 21:58 54.94902 32.66393 31242 ft 408 kts 68°
2026-04-30 21:58 54.96466 32.75899 31243 ft 409 kts 68°
2026-04-30 21:59 54.97772 32.83889 31253 ft 409 kts 68°
2026-04-30 22:00 55.00095 32.98148 31251 ft 410 kts 69°
2026-04-30 22:00 55.02414 33.12549 31253 ft 411 kts 69°
2026-04-30 22:01 55.03958 33.22164 31254 ft 412 kts 69°
2026-04-30 22:01 55.05485 33.31723 31254 ft 412 kts 69°
2026-04-30 22:02 55.07025 33.41431 31256 ft 413 kts 69°
2026-04-30 22:02 55.08542 33.51095 31258 ft 413 kts 69°
2026-04-30 22:03 55.10051 33.60778 31260 ft 414 kts 69°
2026-04-30 22:03 55.11555 33.70418 31252 ft 414 kts 71°
2026-04-30 22:04 55.13068 33.80157 31274 ft 415 kts 69°
2026-04-30 22:05 55.15320 33.94793 31270 ft 416 kts 70°
2026-04-30 22:05 55.16816 34.04593 31272 ft 417 kts 70°
2026-04-30 22:06 55.18299 34.14402 31273 ft 417 kts 70°
2026-04-30 22:06 55.20508 34.29173 31269 ft 418 kts 70°
2026-04-30 22:07 55.21981 34.39045 31255 ft 419 kts 70°
2026-04-30 22:07 55.23446 34.48916 31254 ft 419 kts 70°
2026-04-30 22:08 55.24912 34.58839 31250 ft 420 kts 70°
2026-04-30 22:08 55.26368 34.68769 31253 ft 421 kts 71°
2026-04-30 22:09 55.27811 34.78722 31248 ft 421 kts 71°
2026-04-30 22:09 55.29254 34.88705 31246 ft 422 kts 71°
2026-04-30 22:10 55.30692 34.98704 31242 ft 423 kts 71°
2026-04-30 22:10 55.32116 35.08677 31241 ft 424 kts 71°
2026-04-30 22:11 55.33544 35.18748 30624 ft 422 kts 71°
2026-04-30 22:11 55.34254 35.23805 29963 ft 419 kts 71°
2026-04-30 22:11 55.34936 35.28684 29393 ft 414 kts 71°
2026-04-30 22:12 55.35616 35.33554 28811 ft 408 kts 71°
2026-04-30 22:12 55.36289 35.38371 28216 ft 403 kts 71°
2026-04-30 22:12 55.36958 35.43158 27632 ft 401 kts 71°
2026-04-30 22:12 55.37613 35.47880 27286 ft 391 kts 71°
2026-04-30 22:13 55.38240 35.52487 27016 ft 385 kts 73°
2026-04-30 22:13 55.38568 35.57177 26750 ft 388 kts 84°
2026-04-30 22:13 55.38413 35.61941 26492 ft 392 kts 94°
2026-04-30 22:13 55.37885 35.66650 26233 ft 393 kts 97°
2026-04-30 22:14 55.37334 35.71362 25969 ft 392 kts 97°
2026-04-30 22:14 55.36791 35.76050 25722 ft 390 kts 96°
2026-04-30 22:14 55.36254 35.80703 25483 ft 388 kts 96°
2026-04-30 22:14 55.35716 35.85345 25223 ft 387 kts 97°
2026-04-30 22:15 55.35180 35.89971 24978 ft 385 kts 97°
2026-04-30 22:15 55.34643 35.94583 24738 ft 384 kts 97°
2026-04-30 22:15 55.34116 35.99121 24490 ft 382 kts 97°
2026-04-30 22:15 55.33587 36.03689 24253 ft 381 kts 97°
2026-04-30 22:16 55.33058 36.08242 24015 ft 380 kts 97°
2026-04-30 22:16 55.32524 36.12792 23767 ft 378 kts 97°
2026-04-30 22:17 55.30927 36.26275 22912 ft 374 kts 97°
2026-04-30 22:17 55.30395 36.30735 22630 ft 372 kts 98°
2026-04-30 22:17 55.29331 36.39590 22081 ft 369 kts 98°
2026-04-30 22:18 55.28784 36.43996 21808 ft 368 kts 98°
2026-04-30 22:18 55.27660 36.52713 21268 ft 365 kts 99°
2026-04-30 22:19 55.26529 36.61348 20740 ft 362 kts 99°
2026-04-30 22:19 55.25975 36.65663 20475 ft 361 kts 99°
2026-04-30 22:19 55.24933 36.74231 19965 ft 358 kts 99°
2026-04-30 22:20 55.24420 36.78490 19712 ft 357 kts 99°
2026-04-30 22:20 55.23386 36.86957 19249 ft 354 kts 99°
2026-04-30 22:20 55.22843 36.91158 19221 ft 354 kts 100°
2026-04-30 22:21 55.22281 36.95367 19226 ft 354 kts 101°
2026-04-30 22:21 55.21719 36.99515 19223 ft 354 kts 101°
2026-04-30 22:21 55.21150 37.03768 19224 ft 354 kts 101°
2026-04-30 22:21 55.20606 37.07928 19225 ft 354 kts 100°
2026-04-30 22:22 55.20063 37.12133 19225 ft 354 kts 100°
2026-04-30 22:22 55.19531 37.16354 19227 ft 354 kts 98°
2026-04-30 22:22 55.19323 37.20610 19226 ft 351 kts 86°
2026-04-30 22:22 55.19571 37.24856 19021 ft 349 kts 76°
2026-04-30 22:23 55.20243 37.28896 18729 ft 346 kts 69°
2026-04-30 22:23 55.21014 37.32939 18448 ft 345 kts 70°
2026-04-30 22:23 55.21762 37.36931 18162 ft 344 kts 70°
2026-04-30 22:23 55.22506 37.40851 17900 ft 343 kts 70°
2026-04-30 22:24 55.23284 37.44850 17621 ft 342 kts 69°
2026-04-30 22:24 55.24056 37.48782 17360 ft 340 kts 69°
2026-04-30 22:24 55.24814 37.52650 17107 ft 339 kts 69°
2026-04-30 22:24 55.25574 37.56552 16839 ft 338 kts 70°
2026-04-30 22:25 55.26330 37.60443 16575 ft 337 kts 70°
2026-04-30 22:25 55.27250 37.64188 16318 ft 333 kts 59°
2026-04-30 22:25 55.28574 37.67492 16197 ft 330 kts 47°
2026-04-30 22:25 55.30237 37.70261 16219 ft 330 kts 38°
2026-04-30 22:26 55.33653 37.75663 16220 ft 332 kts 49°
2026-04-30 22:26 55.34956 37.79007 16220 ft 333 kts 60°
2026-04-30 22:26 55.36065 37.82580 16220 ft 334 kts 62°
2026-04-30 22:27 55.36784 37.86460 16221 ft 336 kts 80°
2026-04-30 22:27 55.36791 37.90583 16221 ft 338 kts 98°
2026-04-30 22:27 55.34696 37.97834 15717 ft 338 kts 136°
2026-04-30 22:28 55.31213 38.03396 15233 ft 337 kts 137°
2026-04-30 22:28 55.29489 38.06157 14993 ft 336 kts 137°
2026-04-30 22:29 55.24360 38.14370 14279 ft 332 kts 137°
2026-04-30 22:29 55.22652 38.17098 14039 ft 331 kts 137°
2026-04-30 22:30 55.16070 38.27873 13116 ft 307 kts 127°
2026-04-30 22:31 55.13616 38.37851 12232 ft 296 kts 107°
2026-04-30 22:32 55.11705 38.48021 11158 ft 291 kts 107°
2026-04-30 22:32 55.10698 38.54864 10245 ft 289 kts 89°
2026-04-30 22:33 55.13132 38.63712 9194 ft 270 kts 40°
2026-04-30 22:33 55.15847 38.67929 8804 ft 251 kts 40°
2026-04-30 22:34 55.19728 38.74009 8204 ft 249 kts 40°
2026-04-30 22:35 55.22749 38.76396 7620 ft 242 kts 355°
2026-04-30 22:36 55.27421 38.69876 6602 ft 240 kts 313°
2026-04-30 22:36 55.28536 38.67696 6315 ft 239 kts 313°
2026-04-30 22:37 55.31875 38.61018 5524 ft 243 kts 313°
2026-04-30 22:37 55.32992 38.58834 5237 ft 238 kts 313°
2026-04-30 22:37 55.35251 38.54432 4724 ft 238 kts 313°
2026-04-30 22:38 55.37482 38.50070 4171 ft 242 kts 313°
2026-04-30 22:38 55.39664 38.45799 3670 ft 240 kts 313°
2026-04-30 22:39 55.40778 38.43614 3390 ft 237 kts 313°
2026-04-30 22:39 55.43867 38.37546 2954 ft 214 kts 314°
2026-04-30 22:40 55.46610 38.32140 2338 ft 172 kts 314°
2026-04-30 22:41 55.48717 38.27986 1940 ft 138 kts 315°
2026-04-30 22:41 55.49980 38.25492 1552 ft 135 kts 314°
2026-04-30 22:42 55.52495 38.20493 775 ft 137 kts 311°
2026-04-30 22:43 55.53760 38.17985 409 ft 134 kts 311°
2026-04-30 22:43 55.54619 38.16285 397 ft 46 kts 311°
2026-04-30 22:44 55.55052 38.15427 398 ft 45 kts 311°
2026-04-30 22:45 55.55825 38.13890 399 ft 38 kts 311°
2026-04-30 22:45 55.56173 38.13211 396 ft 36 kts 311°
2026-04-30 22:46 55.56170 38.12897 397 ft 13 kts 223°
2026-04-30 22:47 55.56150 38.12864 399 ft 3 kts 222°
2026-04-30 22:47 55.56193 38.12551 397 ft 16 kts 309°
2026-04-30 22:48 55.56335 38.12261 396 ft 15 kts 311°
2026-04-30 22:49 55.56344 38.12044 397 ft 0 kts 224°